Skip Page Navigation
NASA JPL Caltech
NASA Logo - Jet Propulsion Laboratory + View the NASA Portal
+ Center for Near-Earth Object Studies
JPL Home Earth Solar System Stars & Galaxies Technology
JPL Solar System Dynamics
BODIES ORBITS EPHEMERIDES TOOLS PHYSICAL DATA DISCOVERY FAQ SITE MAP
IMPORTANT: The SSD Announcement email list is now available. Major changes are coming in the near future, including possible hostname and/or URL changes. To be notified of such changes, subscribe to this email list.

Please visit this page for more details.


JPL Small-Body Database Browser
Search: [ help ]  
65283 (2002 GT172)
Classification: Main-belt Asteroid          SPK-ID: 2065283
Ephemeris | Orbit Diagram | Orbital Elements | Mission Design | Physical Parameters | Discovery Circumstances ]

[ show orbit diagram ]
Orbital Elements at Epoch 2458600.5 (2019-Apr-27.0) TDB
Reference: JPL 20 (heliocentric ecliptic J2000)
 Element Value Uncertainty (1-sigma)   Units 
e .1244167119024776 6.8111e-08  
a 2.519801560418016 1.2105e-08 au
q 2.206296135624074 1.735e-07 au
i 1.188451076824386 6.8804e-06 deg
node 153.5365806573983 0.00019402 deg
peri 208.7070942245213 0.0001955 deg
M 297.5780155117843 2.3766e-05 deg
tp 2458853.827891451454
(2020-Jan-05.32789145)
9.6547e-05 TDB
period 1460.992335797016
4.00
1.0528e-05
2.882e-08
d
yr
n .2464078634633008 1.7757e-09 deg/d
Q 2.833306985211958 1.3612e-08 au
  Orbit Determination Parameters
   # obs. used (total)      731  
   data-arc span      10350 days (28.34 yr)  
   first obs. used      1991-08-05  
   last obs. used      2019-12-06  
   planetary ephem.      DE431  
   SB-pert. ephem.      SB431-N16  
   condition code      0  
   norm. resid. RMS      .52749  
   source      ORB  
   producer      Otto Matic  
   solution date      2019-Dec-14 06:55:44  

Additional Information
 Earth MOID = 1.20267 au 
 Jupiter MOID = 2.61022 au 
 T_jup = 3.446 
[ show covariance matrix ]

Ephemeris | Orbit Diagram | Orbital Elements | Mission Design | Physical Parameters | Discovery Circumstances ]

Physical Parameter Table
Parameter Symbol Value Units Sigma Reference Notes
absolute magnitude H 15.6   n/a MPO347951  

65283 (2002 GT172)          Discovered 2002-Apr-10 by LINEAR at Socorro
Reference: 20030614/Numbers.arcLast Updated: 2004-04-19

Alternate Designations
 2002 GT172 = 1991 PO28 = 2000 YU90 
Ephemeris | Orbit Diagram | Orbital Elements | Mission Design | Physical Parameters | Discovery Circumstances ]
ABOUT SSD CREDITS/AWARDS PRIVACY/COPYRIGHT GLOSSARY LINKS
FirstGov 2020-Jan-19 05:03 UT
(server date/time)  
NASA Home Page
Site Manager:   Ryan S. Park
Webmaster  Alan B. Chamberlin